TEVEL2-3

Last updated on Tue Aug 25 2026 00:03:14 GMT+0000 (Coordinated Universal Time)

1 63218U 25052J 26236.16486433 .00017159 00000+0 49075-3 0 9998 2 63218 97.3779 132.2270 0001025 169.0363 191.0903 15.36036290 80520
UTC large
Height (km)
Speed (km/s)
/
Latitude / Longitude
Inclination (degrees)
Orbital Period (minutes)
Azimuth
Elevation
Range (km)
Doppler Factor

Next 0 passes for location: London (51.5072 / 0.1276)

No passes found over London.
TEVEL2-3